Location: Newark
(5.5500°N, 0.2500°W)
Time: 07:20:59
(UTC+00:00)

LightSail 2 - Pass Details

Date: 19 September 2019
Orbit: 707 x 722 km, 24.0° (Epoch: 17 October)

Event Time Altitude Azimuth Distance (km) Brightness Sun altitude
Exits shadow 03:12:15 13° 56° (ENE) 1,988 8.0 -40.2°
Drops below altitude 10° 03:12:43 10° 57° (ENE) 2,158 8.2 -40.1°
Sets 03:15:10 0° 61° (ENE) 3,076 9.2 -39.5°
